Regional Weather Roundup
Issued by NWS

Home | Current Version | Previous Version | Graphics & Text | Print | Product List | Glossary On
Versions: 1 2 3 4 5 6 7 8 9 10 11 12 13 14 15 16 17 18 19 20 21 22 23 24 25 26 27 28 29 30 31 32 33 34 35 36 37 38 39 40 41 42 43 44 45 46 47 48 49 50
000
ASUS43 KOAX 010210
RWRNE

WEATHER ROUNDUP FOR NEBRASKA
NATIONAL WEATHER SERVICE OMAHA NE
800 PM CST SAT JAN 31 2015

NOTES: SATELLITE DATA IS BEING USED TO AUGMENT CLOUD COVER ABOVE
       12000 FEET.
       "FAIR" INDICATES FEW OR NO CLOUDS BELOW 12,000 FEET WITH NO
       SIGNIFICANT WEATHER AND/OR OBSTRUCTIONS TO VISIBILITY.

  * THESE STATIONS DO NOT REPORT WEATHER SUCH AS RAIN...SNOW OR FOG.

NEZ001>004-019>022-054>056-010300-
NEBRASKA PANHANDLE

CITY           SKY/WX    TMP DP  RH WIND       PRES   REMARKS
SCOTTSBLUFF    CLOUDY    29  26  89 NE10      29.92R WCI  20
ALLIANCE       CLOUDY    22  19  89 N14       29.92R WCI   9
CHADRON        FOG       22  20  92 NE13      30.01R VSB 1/2 WCI  10
KIMBALL        CLOUDY    28  27  96 N14       29.84R WCI  17
SIDNEY         FLURRIES  29  27  92 N16       29.86R WCI  17
$$

NEZ057>060-069>072-079>082-010300-
SOUTHWEST NEBRASKA

CITY           SKY/WX    TMP DP  RH WIND       PRES   REMARKS
NORTH PLATTE   LGT SNOW  26  22  84 NE20      29.87R FOG     WCI  12
IMPERIAL       LGT SNOW  32  30  92 N18G26    29.85R FOG     WCI  20
LEXINGTON      LGT SNOW  32  32  99 NE6       29.84S WCI  27
MCCOOK         LGT SNOW  33  31  92 N12       29.83S FOG     WCI  24
OGALLALA       LGT SNOW  26  25  94 N21G26    29.87R WCI  12
$$

NEZ005>010-023>029-035>040-094-010300-
NORTH CENTRAL NEBRASKA

CITY           SKY/WX    TMP DP  RH WIND       PRES   REMARKS
VALENTINE      LGT SNOW  19  16  88 N17G23    30.01R VSB 3/4 WCI   4
AINSWORTH      LGT SNOW  19  17  93 N13       29.98S VSB 1   WCI   5
BROKEN BOW     LGT SNOW  28  24  85 N21G26    29.87S FOG     WCI  15
O`NEILL        LGT SNOW  26  24  95 N16G23    29.96S WCI  13
ORD            LGT SNOW  28  25  88 N15       29.88F VSB 1   WCI  16
THEDFORD       LGT SNOW  22  20  91 N13       29.94R WCI  10
$$

NEZ041-046>049-061>064-073>077-083>087-010300-
SOUTH CENTRAL NEBRASKA

CITY           SKY/WX    TMP DP  RH WIND       PRES   REMARKS
GRAND ISLAND   LGT SNOW  32  31  96 NE6       29.86F VSB 3/4 WCI  26
AURORA         LGT SNOW  32  32 100 E5        29.86F VSB 1   WCI  27
HASTINGS       LGT SNOW  32  30  92 NE6       29.83F FOG     WCI  26
HEBRON         LGT SNOW  33  31  96 SE3       29.85F
HOLDREGE       LGT SNOW  32  31  96 NE7       29.82S WCI  26
KEARNEY *      CLOUDY    30  28  93 NE8       29.84S WCI  23
YORK           LGT SNOW  32  32 100 E6        29.87F WCI  26
$$

NEZ011>018-030>034-042>045-010300-
NORTHEAST NEBRASKA

CITY           SKY/WX    TMP DP  RH WIND       PRES   REMARKS
NORFOLK        LGT SNOW  33  32  96 E6        29.91S VSB 1   WCI  28
ALBION         LGT SNOW  32  31  94 NE6       29.89F WCI  27
BLAIR          LGT SNOW  33  32  94 E5        29.93S WCI  29
FREMONT        LGT SNOW  33  33  99 E3        29.93F
TEKAMAH        LGT SNOW  33  32  96 NE7       29.95F VSB 1   WCI  27
WAYNE          LGT SNOW  33  32  98 E10       29.95S VSB 3/4 WCI  24
$$

NEZ050>053-065>068-078-088>093-010300-
SOUTHEAST NEBRASKA

CITY           SKY/WX    TMP DP  RH WIND       PRES   REMARKS
LINCOLN        LGT SNOW  33  32  96 CALM      29.91F VSB 3/4
OMAHA EPPLEY   LGT SNOW  33  32  96 SE3       29.94F VSB 1
BEATRICE       LGT SNOW  32  32  99 SE6       29.88F WCI  27
FALLS CITY     LGT SNOW  32  32 100 SE10      29.92F VSB 1   WCI  24
NEBRASKA CITY  LGT SNOW  32  32 100 SE10      29.92F WCI  24
PLATTSMOUTH    LGT SNOW  32  31  96 SE7       29.92F WCI  26
$$

NEZ044-045-051>053-067-010300-
OMAHA AREA

CITY           SKY/WX    TMP DP  RH WIND       PRES   REMARKS
OMAHA EPPLEY   LGT SNOW  33  32  96 SE3       29.94F VSB 1
BLAIR          LGT SNOW  33  32  94 E5        29.93S WCI  29
FREMONT        LGT SNOW  33  33  99 E3        29.93F
MILLARD        LGT SNOW  33  32  96 CALM      29.93F
OFFUTT AFB     LGT SNOW  33  32  97 E8        29.93F FOG     WCI  25
PLATTSMOUTH    LGT SNOW  32  31  96 SE7       29.92F WCI  26
WAHOO          LGT SNOW  33  31  94 E6        29.92F WCI  27
$$


USA.gov is the U.S. government's official web portal to all federal, state and local government web resources and services.